Date String (YYYY-MM-DD hh:mm:ss) UTC,Instrument flags,Ambient pressure (hPa),Sample flow (lpm),Bypass flow (lpm),Sample temperature (°C),Ambient temperature (°C),ASC tube jacket temperature (°C),LED temperature (°C),Box temperature (°C),Sample RH (%),Span deviation,Mass concentration (μg/m³),Mass concentration (μg/m³),Mass concentration (μg/m³)
DateTimeUTC,F1_M11,P_M11,Q1_M11,Q2_M11,T1_M11,T2_M11,T3_M11,T4_M11,T5_M11,U1_M11,ZSPAN_M11,X0_M11,X2_M11,X1_M11
2022-10-22 20:00:00,,0809.9,5.01,0.00,29.5,28.4,00.0,38.2,31.4,07.4,0000.0,0005.48,0002.02,0001.42
2022-10-22 20:01:00,,0809.9,4.98,0.00,29.5,28.5,00.0,38.2,31.5,07.4,0000.0,0005.38,0001.98,0001.42
2022-10-22 20:02:00,,0809.7,5.01,0.00,29.6,28.4,00.0,38.2,31.5,07.5,0000.0,0005.34,0001.97,0001.42
2022-10-22 20:03:00,,0809.7,4.99,0.00,29.6,27.3,00.0,38.2,31.4,07.3,0000.0,0005.31,0001.97,0001.43
2022-10-22 20:04:00,,0809.7,5.00,0.00,29.6,26.1,00.0,38.2,31.3,07.3,0000.0,0005.20,0001.97,0001.43
2022-10-22 20:05:00,,0809.7,5.00,0.00,29.5,26.1,00.0,38.1,31.3,07.4,0000.0,0004.60,0001.93,0001.43
2022-10-22 20:06:00,,0809.7,5.01,0.00,29.4,26.4,00.0,38.1,31.1,07.2,0000.0,0004.42,0001.90,0001.43
2022-10-22 20:07:00,,0809.7,4.99,0.00,29.4,26.7,00.0,38.1,31.0,07.0,0000.0,0004.45,0001.87,0001.41
2022-10-22 20:08:00,,0809.7,5.00,0.00,29.4,27.1,00.0,38.1,31.1,07.2,0000.0,0004.05,0001.88,0001.40
2022-10-22 20:09:00,,0809.7,5.02,0.00,29.4,27.4,00.0,38.1,31.1,07.2,0000.0,0003.51,0001.87,0001.40
2022-10-22 20:10:00,,0809.7,4.99,0.00,29.4,27.6,00.0,38.1,31.2,07.3,0000.0,0003.11,0001.87,0001.41
2022-10-22 20:11:00,,0809.7,5.00,0.00,29.4,27.9,00.0,38.1,31.3,07.3,0000.0,0003.32,0001.89,0001.40
2022-10-22 20:12:00,,0809.5,5.02,0.00,29.5,28.1,00.0,38.2,31.4,06.7,0000.0,0003.26,0001.86,0001.39
2022-10-22 20:13:00,,0809.6,4.99,0.00,29.5,28.3,00.0,38.2,31.4,06.4,0000.0,0003.14,0001.81,0001.36
2022-10-22 20:14:00,,0809.6,5.00,0.00,29.5,28.1,00.0,38.2,31.4,06.3,0000.0,0003.15,0001.76,0001.32
2022-10-22 20:15:00,,0809.5,5.00,0.00,29.5,26.7,00.0,38.2,31.3,06.2,0000.0,0003.35,0001.75,0001.29
2022-10-22 20:16:00,,0809.5,5.01,0.00,29.5,26.0,00.0,38.1,31.2,06.4,0000.0,0003.39,0001.73,0001.26
2022-10-22 20:17:00,,0809.5,4.99,0.00,29.4,26.2,00.0,38.1,31.2,06.5,0000.0,0003.36,0001.68,0001.24
2022-10-22 20:18:00,,0809.6,4.99,0.00,29.4,26.5,00.0,38.1,31.0,06.4,0000.0,0003.70,0001.62,0001.23
2022-10-22 20:19:00,,0809.5,5.00,0.00,29.3,26.8,00.0,38.1,31.0,06.1,0000.0,0005.10,0001.59,0001.21
2022-10-22 20:20:00,,0809.5,5.01,0.00,29.3,27.1,00.0,38.1,31.0,06.0,0000.0,0005.15,0001.56,0001.17
2022-10-22 20:21:00,,0809.4,5.00,0.00,29.3,27.4,00.0,38.1,31.1,06.1,0000.0,0005.50,0001.56,0001.15
2022-10-22 20:22:00,,0809.4,5.00,0.00,29.3,27.6,00.0,38.1,31.1,06.0,0000.0,0005.45,0001.53,0001.12
2022-10-22 20:23:00,,0809.4,4.99,0.00,29.4,27.8,00.0,38.1,31.2,06.0,0000.0,0005.73,0001.54,0001.10
2022-10-22 20:24:00,,0809.4,5.01,0.00,29.4,28.0,00.0,38.1,31.2,06.0,0000.0,0006.23,0001.56,0001.10
2022-10-22 20:25:00,,0809.4,5.00,0.00,29.4,28.2,00.0,38.1,31.3,06.0,0000.0,0006.34,0001.60,0001.11
2022-10-22 20:26:00,,0809.4,4.99,0.00,29.5,28.3,00.0,38.1,31.3,06.0,0000.0,0006.16,0001.60,0001.12
2022-10-22 20:27:00,,0809.4,5.01,0.00,29.5,28.4,00.0,38.2,31.4,06.1,0000.0,0006.16,0001.61,0001.13
2022-10-22 20:28:00,,0809.4,4.98,0.00,29.6,28.5,00.0,38.2,31.5,06.1,0000.0,0006.26,0001.64,0001.13
2022-10-22 20:29:00,,0809.3,5.02,0.00,29.6,27.4,00.0,38.2,31.4,06.2,0000.0,0006.03,0001.65,0001.12
2022-10-22 20:30:00,,0809.2,4.98,0.00,29.5,26.1,00.0,38.2,31.3,06.2,0000.0,0004.73,0001.65,0001.13
2022-10-22 20:31:00,,0809.2,5.00,0.00,29.5,26.1,00.0,38.1,31.3,07.0,0000.0,0004.87,0001.75,0001.16
2022-10-22 20:32:00,,0809.3,5.01,0.00,29.4,26.4,00.0,38.1,31.1,07.8,0000.0,0004.81,0001.85,0001.23
2022-10-22 20:33:00,,0809.4,4.98,0.00,29.4,26.8,00.0,38.1,31.0,07.9,0000.0,0004.92,0001.92,0001.30
2022-10-22 20:34:00,,0809.4,4.99,0.00,29.4,27.1,00.0,38.1,31.1,07.9,0000.0,0005.66,0002.00,0001.38
2022-10-22 20:35:00,,0809.4,5.00,0.00,29.4,27.4,00.0,38.1,31.1,07.8,0000.0,0005.93,0002.08,0001.45
2022-10-22 20:36:00,,0809.4,5.00,0.00,29.4,27.7,00.0,38.1,31.2,07.9,0000.0,0006.13,0002.14,0001.51
2022-10-22 20:37:00,,0809.4,5.01,0.00,29.4,27.9,00.0,38.1,31.3,07.8,0000.0,0006.17,0002.19,0001.57
2022-10-22 20:38:00,,0809.4,5.01,0.00,29.4,28.1,00.0,38.2,31.3,07.8,0000.0,0006.74,0002.29,0001.63
2022-10-22 20:39:00,,0809.4,4.99,0.00,29.5,28.2,00.0,38.2,31.4,07.8,0000.0,0008.76,0002.53,0001.71
2022-10-22 20:40:00,,0809.4,5.01,0.00,29.5,28.4,00.0,38.2,31.4,07.7,0000.0,0009.29,0002.68,0001.78
2022-10-22 20:41:00,,0809.4,5.00,0.00,29.6,28.5,00.0,38.2,31.5,07.6,0000.0,0010.02,0002.85,0001.86
2022-10-22 20:42:00,,0809.3,4.98,0.00,29.6,28.6,00.0,38.3,31.6,07.7,0000.0,0010.61,0002.92,0001.91
2022-10-22 20:43:00,,0809.3,5.01,0.00,29.6,28.7,00.0,38.3,31.6,07.7,0000.0,0010.89,0002.92,0001.92
2022-10-22 20:44:00,,0809.4,4.98,0.00,29.7,28.2,00.0,38.3,31.6,07.5,0000.0,0010.84,0002.93,0001.93
2022-10-22 20:45:00,,0809.3,5.01,0.00,29.7,26.7,00.0,38.3,31.5,07.4,0000.0,0010.43,0002.95,0001.93
2022-10-22 20:46:00,,0809.3,5.01,0.00,29.6,26.0,00.0,38.2,31.4,07.4,0000.0,0010.18,0002.98,0001.94
2022-10-22 20:47:00,,0809.2,4.98,0.00,29.6,26.2,00.0,38.2,31.4,07.8,0000.0,0010.16,0003.01,0001.94
2022-10-22 20:48:00,,0809.3,5.02,0.00,29.5,26.5,00.0,38.2,31.2,08.2,0000.0,0010.66,0003.09,0001.94
2022-10-22 20:49:00,,0809.3,4.99,0.00,29.4,26.9,00.0,38.2,31.1,07.6,0000.0,0010.94,0003.12,0001.95
2022-10-22 20:50:00,,0809.3,5.00,0.00,29.4,27.2,00.0,38.2,31.1,07.6,0000.0,0009.21,0002.94,0001.94
2022-10-22 20:51:00,,0809.2,5.00,0.00,29.4,27.5,00.0,38.2,31.2,07.6,0000.0,0008.53,0002.82,0001.93
2022-10-22 20:52:00,,0809.3,5.01,0.00,29.5,27.8,00.0,38.2,31.3,07.5,0000.0,0007.89,0002.72,0001.92
2022-10-22 20:53:00,,0809.2,5.01,0.00,29.5,28.0,00.0,38.2,31.3,07.3,0000.0,0007.23,0002.59,0001.90
2022-10-22 20:54:00,,0809.2,4.98,0.00,29.5,28.1,00.0,38.2,31.4,07.7,0000.0,0006.75,0002.52,0001.88
2022-10-22 20:55:00,,0809.2,5.00,0.00,29.5,28.3,00.0,38.3,31.5,07.7,0000.0,0006.79,0002.49,0001.86
2022-10-22 20:56:00,,0809.2,5.00,0.00,29.6,28.4,00.0,38.3,31.5,07.6,0000.0,0007.08,0002.43,0001.84
2022-10-22 20:57:00,,0809.2,5.00,0.00,29.6,28.5,00.0,38.3,31.5,07.3,0000.0,0007.13,0002.35,0001.81
2022-10-22 20:58:00,,0809.2,4.98,0.00,29.7,27.9,00.0,38.3,31.6,07.2,0000.0,0007.55,0002.29,0001.79
2022-10-22 20:59:00,,0809.2,5.00,0.00,29.6,26.6,00.0,38.3,31.4,07.4,0000.0,0007.79,0002.22,0001.78
